Year,Month,Day,Hour,Minute,Value (Times are PST for windspeed in km/hr)
2006,11,10,00,00,24.90
2006,11,10,00,01,22.20
2006,11,10,00,02,25.10
2006,11,10,00,03,28.60
2006,11,10,00,04,26.30
2006,11,10,00,05,19.90
2006,11,10,00,06,21.80
2006,11,10,00,07,30.10
2006,11,10,00,08,29.40
2006,11,10,00,09,23.40
2006,11,10,00,10,20.10
2006,11,10,00,11,20.80
2006,11,10,00,12,26.80
2006,11,10,00,13,18.60
2006,11,10,00,14,23.90
2006,11,10,00,15,22.50
2006,11,10,00,16,17.40
2006,11,10,00,17,23.70
2006,11,10,00,18,22.40
2006,11,10,00,19,30.70
2006,11,10,00,20,20.80
2006,11,10,00,21,14.60
2006,11,10,00,22,20.60
2006,11,10,00,23,23.60
2006,11,10,00,24,26.80
2006,11,10,00,25,23.70
2006,11,10,00,26,24.10
2006,11,10,00,27,20.20
2006,11,10,00,28,22.50
2006,11,10,00,29,21.50
2006,11,10,00,30,24.20
2006,11,10,00,31,18.50
2006,11,10,00,32,16.50
2006,11,10,00,33,20.80
2006,11,10,00,34,20.20
2006,11,10,00,35,13.50
2006,11,10,00,36,20.90
2006,11,10,00,37,25.00
2006,11,10,00,38,23.40
2006,11,10,00,39,20.50
2006,11,10,00,40,16.80
2006,11,10,00,41,23.70
2006,11,10,00,42,25.10
2006,11,10,00,43,22.60
2006,11,10,00,44,14.80
2006,11,10,00,45,18.70
2006,11,10,00,46,17.80
2006,11,10,00,47,23.00
2006,11,10,00,48,25.80
2006,11,10,00,49,19.80
2006,11,10,00,50,22.40
2006,11,10,00,51,23.60
2006,11,10,00,52,24.00
2006,11,10,00,53,30.70
2006,11,10,00,54,26.20
2006,11,10,00,55,24.10
2006,11,10,00,56,30.70
2006,11,10,00,57,35.30
2006,11,10,00,58,22.40
2006,11,10,00,59,23.50
2006,11,10,01,00,34.00
2006,11,10,01,01,27.10
2006,11,10,01,02,18.80
2006,11,10,01,03,21.50
2006,11,10,01,04,19.90
2006,11,10,01,05,18.20
2006,11,10,01,06,18.40
2006,11,10,01,07,22.20
2006,11,10,01,08,29.80
2006,11,10,01,09,24.00
2006,11,10,01,10,22.60
2006,11,10,01,11,28.30
2006,11,10,01,12,23.40
2006,11,10,01,13,21.00
2006,11,10,01,14,23.00
2006,11,10,01,15,22.80
2006,11,10,01,16,19.50
2006,11,10,01,17,14.20
2006,11,10,01,18,15.80
2006,11,10,01,19,20.20
2006,11,10,01,20,20.10
2006,11,10,01,21,27.00
2006,11,10,01,22,19.60
2006,11,10,01,23,17.00
2006,11,10,01,24,21.90
2006,11,10,01,25,20.20
2006,11,10,01,26,21.70
2006,11,10,01,27,14.50
2006,11,10,01,28,14.00
2006,11,10,01,29,18.40
2006,11,10,01,30,20.60
2006,11,10,01,31,26.60
2006,11,10,01,32,21.60
2006,11,10,01,33,24.40
2006,11,10,01,34,25.20
2006,11,10,01,35,20.80
2006,11,10,01,36,21.50
2006,11,10,01,37,19.80
2006,11,10,01,38,25.10
2006,11,10,01,39,21.60
2006,11,10,01,40,28.70
2006,11,10,01,41,24.10
2006,11,10,01,42,23.10
2006,11,10,01,43,29.00
2006,11,10,01,44,27.80
2006,11,10,01,45,26.20
2006,11,10,01,46,30.70
2006,11,10,01,47,27.30
2006,11,10,01,48,33.70
2006,11,10,01,49,29.00
2006,11,10,01,50,32.90
2006,11,10,01,51,26.10
2006,11,10,01,52,28.20
2006,11,10,01,53,22.30
2006,11,10,01,54,27.20
2006,11,10,01,55,23.20
2006,11,10,01,56,22.20
2006,11,10,01,57,22.60
2006,11,10,01,58,27.40
2006,11,10,01,59,15.20
2006,11,10,02,00,18.50
2006,11,10,02,01,19.90
2006,11,10,02,02,20.60
2006,11,10,02,03,22.50
2006,11,10,02,04,22.80
2006,11,10,02,05,24.30
2006,11,10,02,06,25.20
2006,11,10,02,07,24.60
2006,11,10,02,08,22.30
2006,11,10,02,09,23.30
2006,11,10,02,10,22.10
2006,11,10,02,11,20.90
2006,11,10,02,12,23.50
2006,11,10,02,13,27.40
2006,11,10,02,14,26.90
2006,11,10,02,15,23.50
2006,11,10,02,16,29.40
2006,11,10,02,17,25.00
2006,11,10,02,18,26.00
2006,11,10,02,19,33.50
2006,11,10,02,20,26.20
2006,11,10,02,21,27.20
2006,11,10,02,22,27.60
2006,11,10,02,23,27.10
2006,11,10,02,24,18.70
2006,11,10,02,25,21.60
2006,11,10,02,26,22.90
2006,11,10,02,27,29.30
2006,11,10,02,28,25.30
2006,11,10,02,29,18.90
2006,11,10,02,30,24.70
2006,11,10,02,31,19.00
2006,11,10,02,32,25.30
2006,11,10,02,33,19.20
2006,11,10,02,34,19.70
2006,11,10,02,35,24.90
2006,11,10,02,36,22.30
2006,11,10,02,37,23.50
2006,11,10,02,38,28.20
2006,11,10,02,39,28.30
2006,11,10,02,40,38.10
2006,11,10,02,41,32.00
2006,11,10,02,42,19.90
2006,11,10,02,43,21.10
2006,11,10,02,44,22.30
2006,11,10,02,45,17.90
2006,11,10,02,46,29.60
2006,11,10,02,47,27.60
2006,11,10,02,48,31.60
2006,11,10,02,49,37.50
2006,11,10,02,50,32.20
2006,11,10,02,51,30.60
2006,11,10,02,52,29.30
2006,11,10,02,53,36.90
2006,11,10,02,54,28.40
2006,11,10,02,55,21.30
2006,11,10,02,56,20.80
2006,11,10,02,57,26.80
2006,11,10,02,58,22.80
2006,11,10,02,59,25.30
2006,11,10,03,00,26.80
2006,11,10,03,01,23.20
2006,11,10,03,02,39.50
2006,11,10,03,03,34.50
2006,11,10,03,04,29.40
2006,11,10,03,05,27.20
2006,11,10,03,06,23.00
2006,11,10,03,07,26.70
2006,11,10,03,08,33.10
2006,11,10,03,09,36.50
2006,11,10,03,10,41.00
2006,11,10,03,11,31.60
2006,11,10,03,12,18.80
2006,11,10,03,13,25.50
2006,11,10,03,14,27.80
2006,11,10,03,15,33.70
2006,11,10,03,16,29.00
2006,11,10,03,17,32.50
2006,11,10,03,18,27.20
2006,11,10,03,19,27.90
2006,11,10,03,20,32.90
2006,11,10,03,21,38.40
2006,11,10,03,22,32.50
2006,11,10,03,23,38.60
2006,11,10,03,24,26.50
2006,11,10,03,25,22.40
2006,11,10,03,26,38.90
2006,11,10,03,27,32.40
2006,11,10,03,28,35.60
2006,11,10,03,29,35.10
2006,11,10,03,30,33.70
2006,11,10,03,31,34.00
2006,11,10,03,32,28.10
2006,11,10,03,33,29.20
2006,11,10,03,34,37.80
2006,11,10,03,35,22.50
2006,11,10,03,36,29.90
2006,11,10,03,37,21.80
2006,11,10,03,38,29.20
2006,11,10,03,39,30.70
2006,11,10,03,40,33.40
2006,11,10,03,41,35.20
2006,11,10,03,42,39.30
2006,11,10,03,43,22.50
2006,11,10,03,44,27.50
2006,11,10,03,45,30.30
2006,11,10,03,46,22.50
2006,11,10,03,47,25.50
2006,11,10,03,48,33.60
2006,11,10,03,49,29.00
2006,11,10,03,50,31.10
2006,11,10,03,51,30.80
2006,11,10,03,52,34.70
2006,11,10,03,53,34.80
2006,11,10,03,54,34.00
2006,11,10,03,55,32.40
2006,11,10,03,56,26.90
2006,11,10,03,57,18.60
2006,11,10,03,58,22.10
2006,11,10,03,59,25.50
2006,11,10,04,00,28.30
2006,11,10,04,01,28.70
2006,11,10,04,02,31.80
2006,11,10,04,03,38.20
2006,11,10,04,04,22.30
2006,11,10,04,05,28.50
2006,11,10,04,06,25.30
2006,11,10,04,07,26.60
2006,11,10,04,08,23.10
2006,11,10,04,09,23.00
2006,11,10,04,10,31.90
2006,11,10,04,11,26.90
2006,11,10,04,12,30.40
2006,11,10,04,13,33.10
2006,11,10,04,14,21.80
2006,11,10,04,15,36.20
2006,11,10,04,16,30.20
2006,11,10,04,17,28.80
2006,11,10,04,18,33.10
2006,11,10,04,19,33.40
2006,11,10,04,20,29.80
2006,11,10,04,21,32.70
2006,11,10,04,22,39.10
2006,11,10,04,23,36.40
2006,11,10,04,24,36.00
2006,11,10,04,25,23.10
2006,11,10,04,26,33.70
2006,11,10,04,27,36.10
2006,11,10,04,28,35.80
2006,11,10,04,29,26.70
2006,11,10,04,30,35.70
2006,11,10,04,31,32.30
2006,11,10,04,32,43.20
2006,11,10,04,33,33.40
2006,11,10,04,34,28.90
2006,11,10,04,35,34.60
2006,11,10,04,36,34.30
2006,11,10,04,37,27.90
2006,11,10,04,38,46.80
2006,11,10,04,39,38.40
2006,11,10,04,40,39.00
2006,11,10,04,41,31.00
2006,11,10,04,42,38.10
2006,11,10,04,43,35.00
2006,11,10,04,44,29.10
2006,11,10,04,45,44.30
2006,11,10,04,46,33.50
2006,11,10,04,47,37.30
2006,11,10,04,48,31.20
2006,11,10,04,49,30.60
2006,11,10,04,50,37.10
2006,11,10,04,51,40.20
2006,11,10,04,52,36.90
2006,11,10,04,53,39.60
2006,11,10,04,54,31.30
2006,11,10,04,55,38.50
2006,11,10,04,56,41.30
2006,11,10,04,57,33.50
2006,11,10,04,58,29.50
2006,11,10,04,59,32.90
2006,11,10,05,00,30.30
2006,11,10,05,01,35.70
2006,11,10,05,02,34.70
2006,11,10,05,03,38.00
2006,11,10,05,04,36.60
2006,11,10,05,05,31.90
2006,11,10,05,06,33.50
2006,11,10,05,07,43.80
2006,11,10,05,08,36.80
2006,11,10,05,09,34.90
2006,11,10,05,10,33.60
2006,11,10,05,11,36.20
2006,11,10,05,12,36.30
2006,11,10,05,13,29.20
2006,11,10,05,14,38.20
2006,11,10,05,15,34.00
2006,11,10,05,16,41.80
2006,11,10,05,17,44.80
2006,11,10,05,18,29.10
2006,11,10,05,19,40.50
2006,11,10,05,20,28.20
2006,11,10,05,21,35.90
2006,11,10,05,22,35.80
2006,11,10,05,23,35.10
2006,11,10,05,24,38.90
2006,11,10,05,25,43.30
2006,11,10,05,26,44.00
2006,11,10,05,27,37.40
2006,11,10,05,28,40.70
2006,11,10,05,29,38.20
2006,11,10,05,30,44.60
2006,11,10,05,31,37.50
2006,11,10,05,32,39.00
2006,11,10,05,33,41.20
2006,11,10,05,34,34.40
2006,11,10,05,35,27.40
2006,11,10,05,36,41.00
2006,11,10,05,37,31.90
2006,11,10,05,38,38.90
2006,11,10,05,39,35.70
2006,11,10,05,40,52.10
2006,11,10,05,41,47.50
2006,11,10,05,42,32.60
2006,11,10,05,43,50.20
2006,11,10,05,44,35.30
2006,11,10,05,45,26.60
2006,11,10,05,46,24.80
2006,11,10,05,47,41.20
2006,11,10,05,48,44.70
2006,11,10,05,49,43.10
2006,11,10,05,50,38.80
2006,11,10,05,51,26.10
2006,11,10,05,52,37.70
2006,11,10,05,53,32.80
2006,11,10,05,54,27.70
2006,11,10,05,55,40.30
2006,11,10,05,56,35.00
2006,11,10,05,57,34.30
2006,11,10,05,58,32.10
2006,11,10,05,59,31.90
2006,11,10,06,00,19.30
2006,11,10,06,01,23.50
2006,11,10,06,02,31.30
2006,11,10,06,03,30.20
2006,11,10,06,04,43.30
2006,11,10,06,05,24.60
2006,11,10,06,06,30.00
2006,11,10,06,07,29.80
2006,11,10,06,08,39.20
2006,11,10,06,09,30.20
2006,11,10,06,10,40.40
2006,11,10,06,11,29.60
2006,11,10,06,12,33.10
2006,11,10,06,13,29.60
2006,11,10,06,14,29.60
2006,11,10,06,15,34.90
2006,11,10,06,16,38.10
2006,11,10,06,17,42.20
2006,11,10,06,18,30.50
2006,11,10,06,19,34.40
2006,11,10,06,20,40.80
2006,11,10,06,21,28.90
2006,11,10,06,22,39.70
2006,11,10,06,23,39.20
2006,11,10,06,24,32.50
2006,11,10,06,25,43.50
2006,11,10,06,26,30.90
2006,11,10,06,27,37.40
2006,11,10,06,28,37.30
2006,11,10,06,29,38.40
2006,11,10,06,30,36.00
2006,11,10,06,31,32.50
2006,11,10,06,32,33.10
2006,11,10,06,33,46.40
2006,11,10,06,34,36.20
2006,11,10,06,35,34.40
2006,11,10,06,36,37.80
2006,11,10,06,37,40.00
2006,11,10,06,38,40.80
2006,11,10,06,39,36.90
2006,11,10,06,40,33.40
2006,11,10,06,41,40.90
2006,11,10,06,42,23.00
2006,11,10,06,43,44.50
2006,11,10,06,44,41.40
2006,11,10,06,45,29.30
2006,11,10,06,46,35.80
2006,11,10,06,47,36.30
2006,11,10,06,48,28.80
2006,11,10,06,49,30.50
2006,11,10,06,50,33.10
2006,11,10,06,51,27.50
2006,11,10,06,52,37.20
2006,11,10,06,53,32.90
2006,11,10,06,54,38.90
2006,11,10,06,55,30.70
2006,11,10,06,56,38.20
2006,11,10,06,57,41.80
2006,11,10,06,58,30.00
2006,11,10,06,59,32.30
2006,11,10,07,00,42.10
2006,11,10,07,01,38.10
2006,11,10,07,02,27.00
2006,11,10,07,03,28.20
2006,11,10,07,04,37.80
2006,11,10,07,05,31.30
2006,11,10,07,06,46.40
2006,11,10,07,07,34.20
2006,11,10,07,08,34.80
2006,11,10,07,09,44.00
2006,11,10,07,10,22.70
2006,11,10,07,11,22.80
2006,11,10,07,12,39.20
2006,11,10,07,13,27.90
2006,11,10,07,14,23.80
2006,11,10,07,15,24.70
2006,11,10,07,16,33.00
2006,11,10,07,17,30.70
2006,11,10,07,18,30.50
2006,11,10,07,19,30.60
2006,11,10,07,20,36.90
2006,11,10,07,21,21.80
2006,11,10,07,22,35.70
2006,11,10,07,23,37.30
2006,11,10,07,24,37.30
2006,11,10,07,25,33.30
2006,11,10,07,26,32.00
2006,11,10,07,27,26.60
2006,11,10,07,28,28.80
2006,11,10,07,29,38.10
2006,11,10,07,30,23.60
2006,11,10,07,31,31.50
2006,11,10,07,32,23.30
2006,11,10,07,33,31.50
2006,11,10,07,34,32.90
2006,11,10,07,35,30.20
2006,11,10,07,36,39.60
2006,11,10,07,37,42.10
2006,11,10,07,38,35.20
2006,11,10,07,39,29.80
2006,11,10,07,40,33.30
2006,11,10,07,41,30.40
2006,11,10,07,42,26.90
2006,11,10,07,43,23.70
2006,11,10,07,44,38.90
2006,11,10,07,45,28.10
2006,11,10,07,46,37.00
2006,11,10,07,47,32.20
2006,11,10,07,48,34.60
2006,11,10,07,49,34.40
2006,11,10,07,50,38.40
2006,11,10,07,51,43.50
2006,11,10,07,52,38.60
2006,11,10,07,53,39.10
2006,11,10,07,54,40.90
2006,11,10,07,55,38.70
2006,11,10,07,56,32.20
2006,11,10,07,57,25.30
2006,11,10,07,58,34.40
2006,11,10,07,59,28.90
2006,11,10,08,00,25.60
2006,11,10,08,01,28.20
2006,11,10,08,02,26.10
2006,11,10,08,03,24.60
2006,11,10,08,04,28.30
2006,11,10,08,05,21.10
2006,11,10,08,06,14.60
2006,11,10,08,07,28.30
2006,11,10,08,08,24.70
2006,11,10,08,09,18.90
2006,11,10,08,10,24.80
2006,11,10,08,11,26.20
2006,11,10,08,12,23.00
2006,11,10,08,13,31.50
2006,11,10,08,14,29.80
2006,11,10,08,15,25.30
2006,11,10,08,16,22.30
2006,11,10,08,17,31.80
2006,11,10,08,18,23.10
2006,11,10,08,19,20.80
2006,11,10,08,20,24.30
2006,11,10,08,21,35.00
2006,11,10,08,22,27.10
2006,11,10,08,23,24.80
2006,11,10,08,24,28.60
2006,11,10,08,25,29.30
2006,11,10,08,26,24.60
2006,11,10,08,27,22.30
2006,11,10,08,28,22.30
2006,11,10,08,29,21.30
2006,11,10,08,30,22.90
2006,11,10,08,31,19.10
2006,11,10,08,32,22.30
2006,11,10,08,33,19.30
2006,11,10,08,34,19.30
2006,11,10,08,35,17.80
2006,11,10,08,36,21.60
2006,11,10,08,37,26.30
2006,11,10,08,38,30.00
2006,11,10,08,39,24.10
2006,11,10,08,40,26.40
2006,11,10,08,41,30.60
2006,11,10,08,42,35.60
2006,11,10,08,43,21.50
2006,11,10,08,44,16.10
2006,11,10,08,45,21.00
2006,11,10,08,46,19.00
2006,11,10,08,47,25.90
2006,11,10,08,48,28.10
2006,11,10,08,49,27.80
2006,11,10,08,50,21.40
2006,11,10,08,51,15.90
2006,11,10,08,52,14.90
2006,11,10,08,53,23.10
2006,11,10,08,54,16.10
2006,11,10,08,55,19.80
2006,11,10,08,56,17.20
2006,11,10,08,57,25.10
2006,11,10,08,58,20.60
2006,11,10,08,59,18.10
2006,11,10,09,00,22.40
2006,11,10,09,01,26.00
2006,11,10,09,02,27.00
2006,11,10,09,03,24.90
2006,11,10,09,04,21.60
2006,11,10,09,05,25.80
2006,11,10,09,06,27.10
2006,11,10,09,07,23.70
2006,11,10,09,08,26.20
2006,11,10,09,09,19.90
2006,11,10,09,10,22.40
2006,11,10,09,11,18.20
2006,11,10,09,12,20.80
2006,11,10,09,13,13.60
2006,11,10,09,14,19.60
2006,11,10,09,15,22.90
2006,11,10,09,16,19.30
2006,11,10,09,17,18.70
2006,11,10,09,18,18.00
2006,11,10,09,19,24.60
2006,11,10,09,20,20.40
2006,11,10,09,21,17.80
2006,11,10,09,22,20.80
2006,11,10,09,23,19.10
2006,11,10,09,24,14.90
2006,11,10,09,25,16.90
2006,11,10,09,26,20.00
2006,11,10,09,27,23.30
2006,11,10,09,28,13.10
2006,11,10,09,29,16.80
2006,11,10,09,30,14.20
2006,11,10,09,31,18.70
2006,11,10,09,32,16.10
2006,11,10,09,33,16.70
2006,11,10,09,34,22.10
2006,11,10,09,35,22.90
2006,11,10,09,36,17.30
2006,11,10,09,37,18.80
2006,11,10,09,38,24.30
2006,11,10,09,39,19.80
2006,11,10,09,40,20.10
2006,11,10,09,41,27.30
2006,11,10,09,42,16.90
2006,11,10,09,43,23.50
2006,11,10,09,44,20.50
2006,11,10,09,45,16.10
2006,11,10,09,46,16.80
2006,11,10,09,47,18.00
2006,11,10,09,48,14.70
2006,11,10,09,49,14.80
2006,11,10,09,50,19.40
2006,11,10,09,51,17.60
2006,11,10,09,52,19.10
2006,11,10,09,53,15.50
2006,11,10,09,54,13.50
2006,11,10,09,55,14.50
2006,11,10,09,56,16.90
2006,11,10,09,57,19.90
2006,11,10,09,58,19.50
2006,11,10,09,59,17.30
2006,11,10,10,00,13.70
2006,11,10,10,01,11.30
2006,11,10,10,02,11.30
2006,11,10,10,03,24.40
2006,11,10,10,04,23.60
2006,11,10,10,05,14.60
2006,11,10,10,06,15.10
2006,11,10,10,07,19.40
2006,11,10,10,08,17.50
2006,11,10,10,09,19.70
2006,11,10,10,10,23.70
2006,11,10,10,11,21.50
2006,11,10,10,12,18.00
2006,11,10,10,13,10.80
2006,11,10,10,14,14.30
2006,11,10,10,15,10.30
2006,11,10,10,16,18.40
2006,11,10,10,17,16.10
2006,11,10,10,18,14.60
2006,11,10,10,19,15.80
2006,11,10,10,20,17.10
2006,11,10,10,21,14.10
2006,11,10,10,22,13.90
2006,11,10,10,23,19.20
2006,11,10,10,24,15.40
2006,11,10,10,25,17.30
2006,11,10,10,26,15.10
2006,11,10,10,27,11.10
2006,11,10,10,28,10.30
2006,11,10,10,29,14.60
2006,11,10,10,30,18.50
2006,11,10,10,31,20.70
2006,11,10,10,32,16.90
2006,11,10,10,33,17.30
2006,11,10,10,34,15.20
2006,11,10,10,35,12.10
2006,11,10,10,36,13.00
2006,11,10,10,37,11.70
2006,11,10,10,38,10.30
2006,11,10,10,39,12.00
2006,11,10,10,40,11.50
2006,11,10,10,41,11.90
2006,11,10,10,42,15.10
2006,11,10,10,43,10.00
2006,11,10,10,44,9.30
2006,11,10,10,45,9.60
2006,11,10,10,46,10.50
2006,11,10,10,47,11.70
2006,11,10,10,48,10.10
2006,11,10,10,49,10.70
2006,11,10,10,50,12.50
2006,11,10,10,51,7.70
2006,11,10,10,52,9.20
2006,11,10,10,53,9.90
2006,11,10,10,54,11.70
2006,11,10,10,55,10.90
2006,11,10,10,56,9.20
2006,11,10,10,57,8.80
2006,11,10,10,58,10.80
2006,11,10,10,59,9.80
2006,11,10,11,00,13.50
2006,11,10,11,01,10.00
2006,11,10,11,02,10.80
2006,11,10,11,03,12.50
2006,11,10,11,04,12.40
2006,11,10,11,05,14.70
2006,11,10,11,06,11.40
2006,11,10,11,07,7.50
2006,11,10,11,08,7.20
2006,11,10,11,09,8.50
2006,11,10,11,10,10.90
2006,11,10,11,11,6.90
2006,11,10,11,12,5.80
2006,11,10,11,13,5.80
2006,11,10,11,14,6.50
2006,11,10,11,15,7.50
2006,11,10,11,16,8.60
2006,11,10,11,17,6.50
2006,11,10,11,18,7.00
2006,11,10,11,19,9.10
2006,11,10,11,20,8.10
2006,11,10,11,21,7.70
2006,11,10,11,22,6.00
2006,11,10,11,23,6.30
2006,11,10,11,24,10.40
2006,11,10,11,25,8.90
2006,11,10,11,26,10.10
2006,11,10,11,27,6.80
2006,11,10,11,28,7.50
2006,11,10,11,29,6.50
2006,11,10,11,30,10.90
2006,11,10,11,31,7.50
2006,11,10,11,32,8.60
2006,11,10,11,33,8.50
2006,11,10,11,34,5.70
2006,11,10,11,35,6.40
2006,11,10,11,36,3.80
2006,11,10,11,37,5.80
2006,11,10,11,38,7.30
2006,11,10,11,39,4.50
2006,11,10,11,40,4.50
2006,11,10,11,41,6.90
2006,11,10,11,42,5.60
2006,11,10,11,43,6.50
2006,11,10,11,44,6.00
2006,11,10,11,45,6.70
2006,11,10,11,46,6.60
2006,11,10,11,47,4.90
2006,11,10,11,48,5.80
2006,11,10,11,49,7.50
2006,11,10,11,50,7.30
2006,11,10,11,51,7.30
2006,11,10,11,52,6.10
2006,11,10,11,53,3.10
2006,11,10,11,54,3.00
2006,11,10,11,55,2.10
2006,11,10,11,56,2.10
2006,11,10,11,57,4.10
2006,11,10,11,58,5.30
2006,11,10,11,59,3.10
2006,11,10,12,00,1.60
2006,11,10,12,01,0.80
2006,11,10,12,02,1.80
2006,11,10,12,03,3.80
2006,11,10,12,04,1.70
2006,11,10,12,05,1.50
2006,11,10,12,06,2.70
2006,11,10,12,07,4.30
2006,11,10,12,08,2.70
2006,11,10,12,09,2.70
2006,11,10,12,10,1.90
2006,11,10,12,11,4.70
2006,11,10,12,12,6.20
2006,11,10,12,13,6.50
2006,11,10,12,14,3.30
2006,11,10,12,15,1.50
2006,11,10,12,16,6.70
2006,11,10,12,17,6.30
2006,11,10,12,18,3.50
2006,11,10,12,19,8.10
2006,11,10,12,20,7.50
2006,11,10,12,21,5.10
2006,11,10,12,22,5.80
2006,11,10,12,23,6.50
2006,11,10,12,24,4.40
2006,11,10,12,25,7.70
2006,11,10,12,26,4.60
2006,11,10,12,27,3.30
2006,11,10,12,28,2.50
2006,11,10,12,29,2.30
2006,11,10,12,30,1.90
2006,11,10,12,31,3.00
2006,11,10,12,32,1.30
2006,11,10,12,33,1.50
2006,11,10,12,34,2.50
2006,11,10,12,35,6.30
2006,11,10,12,36,7.70
2006,11,10,12,37,4.70
2006,11,10,12,38,2.30
2006,11,10,12,39,3.80
2006,11,10,12,40,2.00
2006,11,10,12,41,5.10
2006,11,10,12,42,3.80
2006,11,10,12,43,4.20
2006,11,10,12,44,2.00
2006,11,10,12,45,2.70
2006,11,10,12,46,4.10
2006,11,10,12,47,3.50
2006,11,10,12,48,0.10
2006,11,10,12,49,3.50
2006,11,10,12,50,2.50
2006,11,10,12,51,4.30
2006,11,10,12,52,3.00
2006,11,10,12,53,0.30
2006,11,10,12,54,1.00
2006,11,10,12,55,3.70
2006,11,10,12,56,3.10
2006,11,10,12,57,2.50
2006,11,10,12,58,4.40
2006,11,10,12,59,3.80
2006,11,10,13,00,2.90
2006,11,10,13,01,2.90
2006,11,10,13,02,2.40
2006,11,10,13,03,1.60
2006,11,10,13,04,2.70
2006,11,10,13,05,2.00
2006,11,10,13,06,4.30
2006,11,10,13,07,4.70
2006,11,10,13,08,4.50
2006,11,10,13,09,3.40
2006,11,10,13,10,4.00
2006,11,10,13,11,4.40
2006,11,10,13,12,3.10
2006,11,10,13,13,2.40
2006,11,10,13,14,5.30
2006,11,10,13,15,3.60
2006,11,10,13,16,4.10
2006,11,10,13,17,4.60
2006,11,10,13,18,5.60
2006,11,10,13,19,6.50
2006,11,10,13,20,7.10
2006,11,10,13,21,6.10
2006,11,10,13,22,3.90
2006,11,10,13,23,7.20
2006,11,10,13,24,6.20
2006,11,10,13,25,6.10
2006,11,10,13,26,7.90
2006,11,10,13,27,7.20
2006,11,10,13,28,3.90
2006,11,10,13,29,3.60
2006,11,10,13,30,4.70
2006,11,10,13,31,2.50
2006,11,10,13,32,4.30
2006,11,10,13,33,3.60
2006,11,10,13,34,7.30
2006,11,10,13,35,7.10
2006,11,10,13,36,6.90
2006,11,10,13,37,6.80
2006,11,10,13,38,9.00
2006,11,10,13,39,4.60
2006,11,10,13,40,4.20
2006,11,10,13,41,3.60
2006,11,10,13,42,6.40
2006,11,10,13,43,6.40
2006,11,10,13,44,6.40
2006,11,10,13,45,6.80
2006,11,10,13,46,5.40
2006,11,10,13,47,5.90
2006,11,10,13,48,5.00
2006,11,10,13,49,6.40
2006,11,10,13,50,5.50
2006,11,10,13,51,9.00
2006,11,10,13,52,6.30
2006,11,10,13,53,7.20
2006,11,10,13,54,7.00
2006,11,10,13,55,8.50
2006,11,10,13,56,6.90
2006,11,10,13,57,8.10
2006,11,10,13,58,6.70
2006,11,10,13,59,8.40
2006,11,10,14,00,6.90
2006,11,10,14,01,6.10
2006,11,10,14,02,4.90
2006,11,10,14,03,7.00
2006,11,10,14,04,6.80
2006,11,10,14,05,4.50
2006,11,10,14,06,6.20
2006,11,10,14,07,6.30
2006,11,10,14,08,9.20
2006,11,10,14,09,6.90
2006,11,10,14,10,5.00
2006,11,10,14,11,7.00
2006,11,10,14,12,8.10
2006,11,10,14,13,3.90
2006,11,10,14,14,3.60
2006,11,10,14,15,6.70
2006,11,10,14,16,4.90
2006,11,10,14,17,4.00
2006,11,10,14,18,5.20
2006,11,10,14,19,5.50
2006,11,10,14,20,8.10
2006,11,10,14,21,8.30
2006,11,10,14,22,8.40
2006,11,10,14,23,6.80
2006,11,10,14,24,8.50
2006,11,10,14,25,9.10
2006,11,10,14,26,5.40
2006,11,10,14,27,10.30
2006,11,10,14,28,10.80
2006,11,10,14,29,15.10
2006,11,10,14,30,6.30
2006,11,10,14,31,13.40
2006,11,10,14,32,13.80
2006,11,10,14,33,12.30
2006,11,10,14,34,10.30
2006,11,10,14,35,9.10
2006,11,10,14,36,8.80
2006,11,10,14,37,7.30
2006,11,10,14,38,9.10
2006,11,10,14,39,9.90
2006,11,10,14,40,11.60
2006,11,10,14,41,10.60
2006,11,10,14,42,10.70
2006,11,10,14,43,9.70
2006,11,10,14,44,9.40
2006,11,10,14,45,11.80
2006,11,10,14,46,9.80
2006,11,10,14,47,7.60
2006,11,10,14,48,9.70
2006,11,10,14,49,10.30
2006,11,10,14,50,10.60
2006,11,10,14,51,10.50
2006,11,10,14,52,11.90
2006,11,10,14,53,15.60
2006,11,10,14,54,5.20
2006,11,10,14,55,6.40
2006,11,10,14,56,6.20
2006,11,10,14,57,7.50
2006,11,10,14,58,8.80
2006,11,10,14,59,8.80
2006,11,10,15,00,7.80
2006,11,10,15,01,6.40
2006,11,10,15,02,7.30
2006,11,10,15,03,7.20
2006,11,10,15,04,6.10
2006,11,10,15,05,6.40
2006,11,10,15,06,7.00
2006,11,10,15,07,5.50
2006,11,10,15,08,4.80
2006,11,10,15,09,6.40
2006,11,10,15,10,5.30
2006,11,10,15,11,4.70
2006,11,10,15,12,6.20
2006,11,10,15,13,4.00
2006,11,10,15,14,4.70
2006,11,10,15,15,4.20
2006,11,10,15,16,3.50
2006,11,10,15,17,3.20
2006,11,10,15,18,3.10
2006,11,10,15,19,4.60
2006,11,10,15,20,5.20
2006,11,10,15,21,4.60
2006,11,10,15,22,5.10
2006,11,10,15,23,4.40
2006,11,10,15,24,3.90
2006,11,10,15,25,4.10
2006,11,10,15,26,3.70
2006,11,10,15,27,5.40
2006,11,10,15,28,1.40
2006,11,10,15,29,4.30
2006,11,10,15,30,4.80
2006,11,10,15,31,3.00
2006,11,10,15,32,3.70
2006,11,10,15,33,5.50
2006,11,10,15,34,6.30
2006,11,10,15,35,5.20
2006,11,10,15,36,4.80
2006,11,10,15,37,7.40
2006,11,10,15,38,6.90
2006,11,10,15,39,5.10
2006,11,10,15,40,7.90
2006,11,10,15,41,7.70
2006,11,10,15,42,5.00
2006,11,10,15,43,9.50
2006,11,10,15,44,7.20
2006,11,10,15,45,11.50
2006,11,10,15,46,9.20
2006,11,10,15,47,9.00
2006,11,10,15,48,7.50
2006,11,10,15,49,6.60
2006,11,10,15,50,9.10
2006,11,10,15,51,6.10
2006,11,10,15,52,6.10
2006,11,10,15,53,2.20
2006,11,10,15,54,3.10
2006,11,10,15,55,5.40
2006,11,10,15,56,4.00
2006,11,10,15,57,7.70
2006,11,10,15,58,6.00
2006,11,10,15,59,6.60
2006,11,10,16,00,4.00
2006,11,10,16,01,5.70
2006,11,10,16,02,5.10
2006,11,10,16,03,4.80
2006,11,10,16,04,4.50
2006,11,10,16,05,3.00
2006,11,10,16,06,4.00
2006,11,10,16,07,3.30
2006,11,10,16,08,5.70
2006,11,10,16,09,3.90
2006,11,10,16,10,4.80
2006,11,10,16,11,5.00
2006,11,10,16,12,2.60
2006,11,10,16,13,2.80
2006,11,10,16,14,4.70
2006,11,10,16,15,5.80
2006,11,10,16,16,5.10
2006,11,10,16,17,5.80
2006,11,10,16,18,4.20
2006,11,10,16,19,4.30
2006,11,10,16,20,5.20
2006,11,10,16,21,5.20
2006,11,10,16,22,7.50
2006,11,10,16,23,6.30
2006,11,10,16,24,5.30
2006,11,10,16,25,6.50
2006,11,10,16,26,3.40
2006,11,10,16,27,5.90
2006,11,10,16,28,4.60
2006,11,10,16,29,5.60
2006,11,10,16,30,5.00
2006,11,10,16,31,5.90
2006,11,10,16,32,4.90
2006,11,10,16,33,5.60
2006,11,10,16,34,6.20
2006,11,10,16,35,4.30
2006,11,10,16,36,3.30
2006,11,10,16,37,3.80
2006,11,10,16,38,3.80
2006,11,10,16,39,4.70
2006,11,10,16,40,4.30
2006,11,10,16,41,3.10
2006,11,10,16,42,4.80
2006,11,10,16,43,6.90
2006,11,10,16,44,7.30
2006,11,10,16,45,5.80
2006,11,10,16,46,5.00
2006,11,10,16,47,5.80
2006,11,10,16,48,5.30
2006,11,10,16,49,4.50
2006,11,10,16,50,4.80
2006,11,10,16,51,3.00
2006,11,10,16,52,5.80
2006,11,10,16,53,6.00
2006,11,10,16,54,6.70
2006,11,10,16,55,6.80
2006,11,10,16,56,5.10
2006,11,10,16,57,5.90
2006,11,10,16,58,3.30
2006,11,10,16,59,3.90
2006,11,10,17,00,4.50
2006,11,10,17,01,8.90
2006,11,10,17,02,4.20
2006,11,10,17,03,5.80
2006,11,10,17,04,8.10
2006,11,10,17,05,4.10
2006,11,10,17,06,4.90
2006,11,10,17,07,7.30
2006,11,10,17,08,8.50
2006,11,10,17,09,5.40
2006,11,10,17,10,5.90
2006,11,10,17,11,4.80
2006,11,10,17,12,7.30
2006,11,10,17,13,8.10
2006,11,10,17,14,4.30
2006,11,10,17,15,4.60
2006,11,10,17,16,4.10
2006,11,10,17,17,6.10
2006,11,10,17,18,6.40
2006,11,10,17,19,12.00
2006,11,10,17,20,5.40
2006,11,10,17,21,6.30
2006,11,10,17,22,6.50
2006,11,10,17,23,6.10
2006,11,10,17,24,8.00
2006,11,10,17,25,7.00
2006,11,10,17,26,4.70
2006,11,10,17,27,5.20
2006,11,10,17,28,6.00
2006,11,10,17,29,6.40
2006,11,10,17,30,6.50
2006,11,10,17,31,4.80
2006,11,10,17,32,6.50
2006,11,10,17,33,4.80
2006,11,10,17,34,5.60
2006,11,10,17,35,7.30